This demonstration page uses our WeatherBlox Daily Observations layout. Learn more.

Left ArrowRight Arrow

53.62937, 11.41316

Hourly Observations for December 8, 2019

Temp ( °F °C ) Dew Point ( °F °C ) Humidity (%) Winds ( mph kmh ) Pressure ( in mb ) Visibility ( mi km ) Precip ( " mm )
6:50 am 06:50 Mostly Cloudy 48 9 41 5 76 76 SW 16 26 29.50 999 30 48 N/A
7:20 am 07:20 Mostly Cloudy 48 9 39 4 71 71 SW 20 31 29.47 998 30 48 N/A
7:50 am 07:50 Mostly Cloudy 48 9 39 4 71 71 SW 17 28 29.47 998 30 48 N/A
8:20 am 08:20 Mostly Cloudy 48 9 39 4 71 71 SW 18 30 29.44 997 30 48 N/A
8:50 am 08:50 Mostly Cloudy 48 9 39 4 71 71 SW 20 31 29.44 997 30 48 N/A
9:20 am 09:20 Mostly Cloudy with Light Rain 48 9 41 5 76 76 SW 16 26 29.44 997 30 48 N/A
9:50 am 09:50 Mostly Cloudy with Light Rain 46 8 43 6 87 87 SW 18 30 29.38 995 5 8 N/A
10:20 am 10:20 Mostly Cloudy with Light Rain 46 8 43 6 87 87 SW 18 30 29.38 995 6 9 N/A
10:50 am 10:50 Mostly Cloudy 46 8 43 6 87 87 SW 14 22 29.38 995 5 8 N/A
11:20 am 11:20 Mostly Cloudy with Light Rain 46 8 45 7 93 93 SW 20 31 29.38 995 4 7 N/A
11:50 am 11:50 Mostly Cloudy 48 9 45 7 87 87 SW 20 31 29.35 994 5 8 N/A
12:20 pm 12:20 Mostly Cloudy 48 9 45 7 87 87 SW 20 31 29.32 993 5 8 N/A
12:50 pm 12:50 Mostly Cloudy 48 9 45 7 87 87 SW 20 31 29.32 993 30 48 N/A
1:20 pm 13:20 Mostly Cloudy with Drizzle 48 9 46 8 94 94 SW 20 31 29.32 993 4 7 N/A
1:50 pm 13:50 Mostly Cloudy 48 9 46 8 94 94 SW 20 31 29.32 993 30 48 N/A
2:20 pm 14:20 Mostly Cloudy 50 10 46 8 88 88 SW 20 31 29.29 992 30 48 N/A
2:50 pm 14:50 Mostly Cloudy 50 10 45 7 82 82 SW 20 31 29.29 992 30 48 N/A
3:20 pm 15:20 Partly Cloudy 50 10 45 7 82 82 WSW 21 33 29.29 992 30 48 N/A
3:50 pm 15:50 Mostly Cloudy 50 10 45 7 82 82 WSW 20 31 29.29 992 30 48 N/A
4:20 pm 16:20 Mostly Cloudy 50 10 43 6 76 76 W 17 28 29.29 992 30 48 N/A
4:50 pm 16:50 Partly Cloudy 50 10 43 6 76 76 W 13 20 29.32 993 30 48 N/A
5:20 pm 17:20 Partly Cloudy 48 9 41 5 76 76 WSW 17 28 29.32 993 30 48 N/A
5:50 pm 17:50 Partly Cloudy 48 9 43 6 82 82 WSW 16 26 29.32 993 30 48 N/A
6:20 pm 18:20 Mostly Clear 48 9 41 5 76 76 WSW 18 30 29.32 993 7 11 N/A
6:50 pm 18:50 Mostly Clear 46 8 41 5 82 82 W 17 28 29.32 993 7 11 N/A
7:20 pm 19:20 Partly Cloudy 46 8 39 4 76 76 WSW 14 22 29.32 993 30 48 N/A
7:50 pm 19:50 Mostly Clear 46 8 39 4 76 76 WSW 16 26 29.32 993 30 48 N/A

Powered by AerisWeather